Regional Weather Roundup
Issued by NWS San Angelo, TX

Home | Current Version | Previous Version | Text Only | Print | Product List | Glossary On
Versions: 1 2 3 4 5 6 7 8 9 10 11 12 13 14 15 16 17 18 19 20 21 22 23 24 25 26 27 28 29 30 31 32 33 34 35 36 37 38 39 40 41 42 43 44 45 46 47 48 49 50
000
ASUS44 KSJT 250110
RWRSJT
WEST CENTRAL TEXAS REGIONAL WEATHER ROUNDUP
NATIONAL WEATHER SERVICE SAN ANGELO TX
800 PM CDT SUN SEP 24 2017

NOTE: "FAIR" INDICATES FEW OR NO CLOUDS BELOW 12,000 FEET WITH NO
SIGNIFICANT WEATHER AND/OR OBSTRUCTIONS TO VISIBILITY.

TXZ049-054-064>066-071>073-076>078-098-099-113-114-127-128-139-140-
154-155-168>170-250200
...LOCATIONS ACROSS WEST CENTRAL TEXAS...

CITY           SKY/WX    TMP DP  RH WIND       PRES   REMARKS
SAN ANGELO     PTCLDY    72  68  87 NE8       29.84S
ABILENE        CLOUDY    76  67  73 SE9       29.88R
DYESS AFB      CLOUDY    77  66  69 S8        29.86R
JUNCTION       CLOUDY    85  62  46 SE9       29.83S
SWEETWATER     CLOUDY    76  65  67 SE7       29.91R
BROWNWOOD      NOT AVBL
COLEMAN        CLOUDY    73  67  82 SE8       29.87F
SONORA         CLOUDY    75  72  88 CALM      29.90R
OZONA          FAIR      73  68  83 SE3       29.89R
BRADY          NOT AVBL
$$

TEXAS PANHANDLE/OKLAHOMA PANHANDLE

CITY           SKY/WX    TMP DP  RH WIND       PRES   REMARKS
AMARILLO       PTCLDY    70  65  84 SE15      29.90R
BORGER         CLEAR     73  66  78 SE13      29.87S
CANADIAN       CLOUDY    72  69  89 SE7       29.88S
DALHART        PTCLDY    72  61  68 SE13      29.88R
DUMAS          PTCLDY    70  64  82 SE13      29.88S
GUYMON         NOT AVBL
HEREFORD       MOCLDY    73  65  78 SE10      29.90S
PAMPA          MOCLDY    71  66  84 SE16      29.91S
PERRYTON       CLEAR     71  67  86 SE16      29.86S
$$

SOUTHERN PANHANDLE/SOUTH PLAINS/ROLLING PLAINS

CITY           SKY/WX    TMP DP  RH WIND       PRES   REMARKS
LUBBOCK        MOCLDY    71  65  81 SE16      29.89S
SNYDER         CLOUDY    75  65  70 SE9       29.88S
CHILDRESS      CLOUDY    71  69  93 S8        29.87F
SEMINOLE       PTCLDY    73  65  76 SE10G18   29.89R
$$

PERMIAN BASIN

CITY           SKY/WX    TMP DP  RH WIND       PRES   REMARKS
MIDLAND        MOCLDY    76  65  68 SE16      29.86S
ODESSA         PTCLDY    75  65  70 SE16G24   29.86S
WINK           MOCLDY    77  67  71 SE18      29.81R
$$

FAR WEST/SOUTHWEST MOUNTAINS/TRANS PECOS

CITY           SKY/WX    TMP DP  RH WIND       PRES   REMARKS
ALPINE         CLEAR     73  63  70 S15G22    29.94R
DRYDEN           N/A     75  70  84 E10       29.82R
EL PASO        PTCLDY    83  39  21 W8        29.81S
FORT STOCKTON  NOT AVBL
GUADALUPE PASS NOT AVBL
MARFA          NOT AVBL
PECOS          PTCLDY    78  67  69 E21       29.79R
$$

DALLAS/FORT WORTH METROPLEX

CITY           SKY/WX    TMP DP  RH WIND       PRES   REMARKS
DFW AIRPORT    PTCLDY    85  64  49 SE9       29.83R
FTW MEACHAM    CLEAR     88  64  44 E10       29.83R
DAL-EXECUTIVE  CLEAR     85  65  51 SE10      29.84R
GRAND PRAIRIE  CLEAR     86  59  39 E10       29.85S
ADDISON        PTCLDY    86  63  45 E10       29.85S
MESQUITE       CLEAR     82  63  51 E6        29.86S
LANCASTER      CLEAR     85  63  48 SE6       29.86S
$$

NORTH CENTRAL TEXAS

CITY           SKY/WX    TMP DP  RH WIND       PRES   REMARKS
SHRMAN/DENISON CLEAR     82  65  55 SE6       29.88R
GAINESVILLE    PTCLDY    81  63  54 E3        29.88S
BRIDGEPORT     CLOUDY    81  61  49 SE3       29.86R
DENTON         PTCLDY    84  63  49 SE9       29.84R
WAXAHACHIE     CLEAR     85  62  46 E6        29.86S
GRANBURY       CLEAR     85  62  44 SE5       29.85R
$$

WESTERN NORTH TEXAS

CITY           SKY/WX    TMP DP  RH WIND       PRES   REMARKS
WICHITA FALLS  CLOUDY    82  62  50 SE8       29.84S
VERNON         PTCLDY    79  63  57 NE3       29.86S
BRECKENRIDGE   DRIZZLE   76  66  71 SW6       29.87R
COMANCHE       CLOUDY    77  69  76 W5        29.87R
$$

CENTRAL AND SOUTH CENTRAL TEXAS

CITY           SKY/WX    TMP DP  RH WIND       PRES   REMARKS
AUSTIN/BERGSTM PTCLDY    82  72  71 SE6       29.84R
WACO           CLEAR     84  62  47 SE9       29.83R
HILLSBORO      CLEAR     85  64  48 SE7       29.85S
TEMPLE         CLEAR     84  66  54 SE10      29.85R
KILLEEN-GRAY   CLEAR    N/A N/A N/A SE9       29.85R
FORT HOOD      CLEAR    N/A N/A N/A SE7       29.82R
GEORGETOWN     CLEAR     81  71  71 SE5       29.87R
LAGO VISTA     FAIR      81  68  65 SE8       29.88R
SAN MARCOS     MOCLDY    79  68  69 E5        29.85R
NEW BRAUNFELS  PTCLDY    82  70  66 SE10      29.82S
RANDOLPH AFB   CLOUDY    81  72  74 E13       29.83R
SAN ANTONIO    PTCLDY    81  70  69 E13       29.84R
STINSON        CLEAR     84  71  65 SE9       29.80R
PLEASANTON     NOT AVBL
LA GRANGE      CLEAR     79  74  85 CALM      29.83R
GIDDINGS       CLEAR     79  70  72 CALM      29.86R
$$

EAST TEXAS

CITY           SKY/WX    TMP DP  RH WIND       PRES   REMARKS
PARIS          CLEAR     80  68  66 SE10      29.89S
CLARKSVILLE    NOT AVBL
TYLER          CLEAR     80  64  58 SE6       29.88R
LONGVIEW       CLEAR     80  66  62 SE6       29.88R
PALESTINE      CLEAR     82  66  57 E5        29.89R
NACOGDOCHES    CLEAR     75  70  84 E3        29.89S
$$

TEXAS HILL COUNTRY AND EDWARDS PLATEAU

CITY           SKY/WX    TMP DP  RH WIND       PRES   REMARKS
LLANO          CLOUDY    84  68  58 E8        29.88R
HORSESHOE BAY  FAIR      82  67  61 SE8       29.86R
KERRVILLE      CLOUDY    79  70  74 E9G18     29.87R
FREDERICKSBRG  CLOUDY    76  65  68 SE5       29.89R
ROCKSPRINGS    NOT AVBL
HONDO          PTCLDY    86  69  56 E16       29.81R
UVALDE         MOCLDY    88  64  45 E10       29.78S
DEL RIO        CLOUDY    79  76  90 CALM      29.75F
$$

SOUTHEAST TEXAS

CITY           SKY/WX    TMP DP  RH WIND       PRES   REMARKS
COLLEGE STN    PTCLDY    84  71  65 E9        29.85R
CALDWELL       CLEAR     82  69  64 E5        29.85S
CROCKETT       MOCLDY    77  68  73 CALM      29.90S
BRENHAM        PTCLDY    83  71  65 SE7       29.86R
HUNTSVILLE     CLOUDY    81  69  67 VRB5      29.88R
CONROE         PTCLDY    77  71  82 SE5       29.88R
HOUSTON BUSH   PTCLDY    75  70  84 E7        29.86F
HOUSTON HOBBY  PTCLDY    83  72  69 SE7       29.85R
PERLAND        CLEAR     84  73  69 E8        29.87R
WHARTON        CLEAR     77  71  81 SE5       29.85R
$$

THE UPPER TEXAS COAST

CITY           SKY/WX    TMP DP  RH WIND       PRES   REMARKS
ORANGE         CLEAR     80  74  80 MISG      29.89R
PORT ARTHUR    CLEAR     76  72  87 S3        29.86S
GALVESTON      CLEAR     84  74  71 E13       29.86S
ANGLETON       CLEAR     81  73  76 E5        29.86R
BAY CITY       CLEAR     80  73  80 E5        29.85R
$$

TEXAS COASTAL BEND, RIO GRANDE PLAINS DEEP SOUTH TEXAS

CITY           SKY/WX    TMP DP  RH WIND       PRES   REMARKS
VICTORIA       CLEAR     79  74  84 MISG      29.83R
BEEVILLE       FAIR      82  66  57 SE7       29.81R
ROCKPORT       PTCLDY    82  75  79 SE15      29.80S
PORT ARANSAS   NOT AVBL
PORT LAVACA    NOT AVBL
CORPUS CHRISTI PTCLDY    83  74  74 SE16      29.80R
KINGSVILLE NAS PTCLDY    83  77  82 SE15      29.79R
COTULLA        CLOUDY    87  67  51 SE18      29.77R
LAREDO         CLOUDY    88  71  57 E17G23    29.75R
BROWNSVILLE    CLEAR     83  74  74 E10       29.78R
PORT ISABEL    PTCLDY    84  76  76 E15       29.78R
HEBBRONVILLE   PTCLDY    84  67  56 SE16      29.80R
MCALLEN        MOCLDY    87  73  62 E13       29.76R
WESLACO        CLEAR     86  69  57 SE9G17    29.76R
FALFURRIAS     CLEAR    -38  32 100 E10       29.78R WCI -63
EDINBURG       CLEAR     86  72  62 E13G21    29.77R
$$




USA.gov is the U.S. government's official web portal to all federal, state and local government web resources and services.